• Em Portugal
  • Lista de países
  • Para 7 dias
  • Temperatura da água
  • Mapas de satélite
  • Mapa do tempo
  • Widgets de tempo
  • user-avatar
    Iniciar Sessão

    Previsão horária em Mikolajowka

    Hoje, 19 Agosto, Domingo

    Tempo Temperatura Precipitação Vento Pressão Humidade
    00:00 +16°C° 0 mm 2 m/s 745 mmHg 93%
    01:00 +15°C° 0 mm 2 m/s 745 mmHg 93%
    02:00 +14°C° 0 mm 2 m/s 745 mmHg 93%
    03:00 +14°C° 0 mm 2 m/s 745 mmHg 92%
    04:00 +14°C° 0 mm 1 m/s 745 mmHg 91%
    05:00 +13°C° 0 mm 1 m/s 745 mmHg 90%
    06:00 +15°C° 0 mm 1 m/s 745 mmHg 85%
    07:00 +16°C° 0 mm 1 m/s 746 mmHg 80%
    08:00 +18°C° 0 mm 2 m/s 746 mmHg 74%
    09:00 +19°C° 0 mm 2 m/s 746 mmHg 68%
    10:00 +21°C° 0 mm 2 m/s 746 mmHg 63%
    11:00 +22°C° 0 mm 3 m/s 746 mmHg 57%
    12:00 +24°C° 0 mm 3 m/s 746 mmHg 56%
    13:00 +25°C° 0 mm 3 m/s 746 mmHg 55%
    14:00 +25°C° 0 mm 3 m/s 745 mmHg 54%
    15:00 +25°C° 0 mm 3 m/s 745 mmHg 56%
    16:00 +25°C° 0 mm 2 m/s 745 mmHg 57%
    17:00 +25°C° 0 mm 2 m/s 745 mmHg 59%
    18:00 +24°C° 0 mm 2 m/s 744 mmHg 65%
    19:00 +22°C° 0 mm 1 m/s 744 mmHg 71%
    20:00 +18°C° 0 mm 0 m/s 744 mmHg 77%
    21:00 +20°C° 0 mm 1 m/s 744 mmHg 79%
    22:00 +19°C° 0 mm 1 m/s 744 mmHg 81%
    23:00 +19°C° 0 mm 1 m/s 744 mmHg 83%

    Amanhã, 20 Agosto, Segunda-feira

    Tempo Temperatura Precipitação Vento Pressão Humidade
    00:00 +18°C° 0 mm 1 m/s 744 mmHg 85%
    01:00 +18°C° 0 mm 1 m/s 743 mmHg 86%
    02:00 +17°C° 0 mm 2 m/s 743 mmHg 87%
    03:00 +17°C° 0 mm 2 m/s 743 mmHg 88%
    04:00 +17°C° 0 mm 2 m/s 742 mmHg 89%
    05:00 +16°C° 0 mm 2 m/s 742 mmHg 90%
    06:00 +18°C° 0 mm 3 m/s 742 mmHg 85%
    07:00 +19°C° 0 mm 3 m/s 742 mmHg 80%
    08:00 +21°C° 0 mm 3 m/s 742 mmHg 76%
    09:00 +22°C° 0 mm 4 m/s 741 mmHg 68%
    10:00 +25°C° 0 mm 4 m/s 741 mmHg 60%
    11:00 +27°C° 0 mm 4 m/s 741 mmHg 52%
    12:00 +27°C° 0 mm 5 m/s 741 mmHg 51%
    13:00 +28°C° 0 mm 5 m/s 740 mmHg 50%
    14:00 +29°C° 0 mm 5 m/s 740 mmHg 49%
    15:00 +28°C° 0,1 mm 5 m/s 740 mmHg 53%
    16:00 +27°C° 0,1 mm 5 m/s 739 mmHg 57%
    17:00 +27°C° 0,1 mm 4 m/s 739 mmHg 61%
    18:00 +25°C° 0,1 mm 4 m/s 739 mmHg 68%
    19:00 +22°C° 0,1 mm 4 m/s 739 mmHg 76%
    20:00 +20°C° 0,1 mm 3 m/s 739 mmHg 83%
    21:00 +19°C° 0 mm 3 m/s 739 mmHg 87%
    22:00 +18°C° 0 mm 3 m/s 739 mmHg 90%
    23:00 +17°C° 0 mm 3 m/s 739 mmHg 94%

    Depois de amanhã, 21 Agosto, Terça-feira

    Tempo Temperatura Precipitação Vento Pressão Humidade
    00:00 +17°C° 0 mm 4 m/s 739 mmHg 93%
    01:00 +17°C° 0 mm 4 m/s 739 mmHg 91%
    02:00 +15°C° 0 mm 4 m/s 739 mmHg 90%
    03:00 +14°C° 0 mm 4 m/s 739 mmHg 89%
    04:00 +14°C° 0 mm 4 m/s 739 mmHg 88%
    05:00 +13°C° 0 mm 4 m/s 740 mmHg 87%
    06:00 +14°C° 0 mm 4 m/s 740 mmHg 85%
    07:00 +15°C° 0 mm 5 m/s 741 mmHg 83%
    08:00 +16°C° 0 mm 5 m/s 741 mmHg 80%
    09:00 +17°C° 0 mm 5 m/s 742 mmHg 74%
    10:00 +19°C° 0 mm 5 m/s 742 mmHg 68%
    11:00 +20°C° 0 mm 5 m/s 743 mmHg 62%
    12:00 +20°C° 0 mm 5 m/s 743 mmHg 60%
    13:00 +21°C° 0 mm 5 m/s 743 mmHg 57%
    14:00 +21°C° 0 mm 5 m/s 744 mmHg 55%
    15:00 +21°C° 0 mm 5 m/s 744 mmHg 56%
    16:00 +20°C° 0 mm 5 m/s 744 mmHg 56%
    17:00 +20°C° 0 mm 5 m/s 744 mmHg 57%
    18:00 +18°C° 0 mm 4 m/s 745 mmHg 64%
    19:00 +15°C° 0 mm 4 m/s 745 mmHg 70%
    20:00 +14°C° 0 mm 3 m/s 745 mmHg 77%
    21:00 +13°C° 0 mm 3 m/s 746 mmHg 80%
    22:00 +13°C° 0 mm 2 m/s 746 mmHg 83%
    23:00 +12°C° 0 mm 2 m/s 746 mmHg 86%

    22 Agosto, Quarta-feira

    Tempo Temperatura Precipitação Vento Pressão Humidade
    00:00 +10°C° 0 mm 2 m/s 747 mmHg 87%
    01:00 +10°C° 0 mm 2 m/s 747 mmHg 88%
    02:00 +9°C° 0 mm 2 m/s 747 mmHg 90%
    03:00 +10°C° 0 mm 1 m/s 747 mmHg 90%
    04:00 +9°C° 0 mm 1 m/s 747 mmHg 90%
    05:00 +9°C° 0 mm 1 m/s 748 mmHg 91%
    06:00 +11°C° 0 mm 1 m/s 748 mmHg 85%
    07:00 +12°C° 0 mm 1 m/s 748 mmHg 79%
    08:00 +14°C° 0 mm 1 m/s 748 mmHg 73%
    09:00 +16°C° 0 mm 1 m/s 748 mmHg 66%
    10:00 +18°C° 0 mm 1 m/s 748 mmHg 59%
    11:00 +20°C° 0 mm 1 m/s 748 mmHg 52%
    12:00 +21°C° 0 mm 1 m/s 748 mmHg 48%
    13:00 +22°C° 0 mm 1 m/s 748 mmHg 45%
    14:00 +23°C° 0 mm 1 m/s 748 mmHg 42%
    15:00 +23°C° 0 mm 1 m/s 748 mmHg 42%
    16:00 +23°C° 0 mm 1 m/s 747 mmHg 43%
    17:00 +22°C° 0 mm 1 m/s 747 mmHg 44%
    18:00 +20°C° 0 mm 1 m/s 747 mmHg 49%
    19:00 +19°C° 0 mm 1 m/s 747 mmHg 54%
    20:00 +16°C° 0 mm 2 m/s 746 mmHg 59%
    21:00 +15°C° 0 mm 2 m/s 746 mmHg 62%
    22:00 +14°C° 0 mm 2 m/s 746 mmHg 64%
    23:00 +13°C° 0 mm 3 m/s 746 mmHg 66%

    23 Agosto, Quinta-feira

    Tempo Temperatura Precipitação Vento Pressão Humidade
    00:00 +12°C° 0 mm 3 m/s 746 mmHg 69%
    01:00 +12°C° 0 mm 3 m/s 746 mmHg 71%
    02:00 +12°C° 0 mm 3 m/s 746 mmHg 73%
    03:00 +12°C° 0 mm 3 m/s 746 mmHg 75%
    04:00 +12°C° 0 mm 3 m/s 745 mmHg 77%
    05:00 +11°C° 0 mm 3 m/s 745 mmHg 78%
    06:00 +13°C° 0 mm 4 m/s 745 mmHg 75%
    07:00 +14°C° 0 mm 4 m/s 745 mmHg 71%
    08:00 +17°C° 0 mm 4 m/s 745 mmHg 68%
    09:00 +18°C° 0 mm 4 m/s 744 mmHg 64%
    10:00 +20°C° 0 mm 4 m/s 744 mmHg 59%
    11:00 +22°C° 0 mm 4 m/s 744 mmHg 55%
    12:00 +23°C° 0 mm 4 m/s 744 mmHg 53%
    13:00 +25°C° 0 mm 4 m/s 744 mmHg 51%
    14:00 +26°C° 0 mm 4 m/s 743 mmHg 49%
    15:00 +26°C° 0 mm 3 m/s 743 mmHg 51%
    16:00 +26°C° 0 mm 3 m/s 743 mmHg 52%
    17:00 +25°C° 0 mm 2 m/s 742 mmHg 54%
    18:00 +24°C° 0 mm 3 m/s 742 mmHg 60%
    19:00 +21°C° 0 mm 3 m/s 742 mmHg 65%
    20:00 +19°C° 0 mm 3 m/s 742 mmHg 71%
    21:00 +19°C° 0 mm 3 m/s 742 mmHg 73%
    22:00 +18°C° 0 mm 3 m/s 742 mmHg 75%
    23:00 +17°C° 0 mm 3 m/s 741 mmHg 77%

    24 Agosto, Sexta-feira

    Tempo Temperatura Precipitação Vento Pressão Humidade
    00:00 +17°C° 0 mm 3 m/s 741 mmHg 79%
    01:00 +17°C° 0 mm 3 m/s 741 mmHg 82%
    02:00 +16°C° 0 mm 3 m/s 741 mmHg 85%
    03:00 +16°C° 0 mm 3 m/s 740 mmHg 87%
    04:00 +16°C° 0 mm 3 m/s 740 mmHg 89%
    05:00 +16°C° 0 mm 3 m/s 740 mmHg 92%
    06:00 +17°C° 0 mm 3 m/s 740 mmHg 88%
    07:00 +18°C° 0 mm 4 m/s 740 mmHg 84%
    08:00 +19°C° 0 mm 4 m/s 740 mmHg 81%
    09:00 +21°C° 0 mm 4 m/s 740 mmHg 75%
    10:00 +23°C° 0 mm 4 m/s 740 mmHg 69%
    11:00 +26°C° 0 mm 5 m/s 739 mmHg 63%
    12:00 +27°C° 0 mm 5 m/s 739 mmHg 59%
    13:00 +28°C° 0 mm 5 m/s 739 mmHg 56%
    14:00 +29°C° 0 mm 6 m/s 738 mmHg 52%
    15:00 +28°C° 0 mm 5 m/s 738 mmHg 53%
    16:00 +28°C° 0 mm 5 m/s 738 mmHg 55%
    17:00 +28°C° 0 mm 5 m/s 737 mmHg 56%
    18:00 +26°C° 0,1 mm 5 m/s 737 mmHg 59%
    19:00 +25°C° 0,1 mm 5 m/s 737 mmHg 62%
    20:00 +22°C° 0,1 mm 5 m/s 737 mmHg 65%
    21:00 +22°C° 0,1 mm 5 m/s 737 mmHg 66%
    22:00 +21°C° 0,1 mm 5 m/s 737 mmHg 68%
    23:00 +20°C° 0,1 mm 5 m/s 737 mmHg 70%
    Mostrar mais